"Pseudo-MPEC" for P11XWnT

Created 2024 Sep 7 3:22:10 UT using Find_Orb

Click here for an explanation of pseudo-MPECs

 
 Astrometry: 
     P11XWnT* C2024 09 04.40073422 19 16.145-28 22 33.19   ~94Bb 21.23wXNEOCPF51
     P11XWnT  C2024 09 04.41173422 19 16.964-28 22 56.81   ~94Bb 21.44wXNEOCPF51
     P11XWnT  C2024 09 04.43061122 19 18.401-28 23 37.75   ~94Bb 21.47wXNEOCPF51
     P11XWnT  C2024 09 04.51128922 19 24.588-28 26 28.59   ~94KM 21.15GVNEOCPF51
     P11XWnT  C2024 09 04.51192922 19 24.659-28 26 29.89   ~94KM 21.16GVNEOCPF51
     P11XWnT !C2024 09 05.00466 22 20 12.27 -28 44 15.2    ~95Hq 20.7 GVNEOCPJ04
     P11XWnT !C2024 09 05.01326 22 20 12.92 -28 44 34.3    ~95Hq 20.5 GVNEOCPJ04
     P11XWnT !C2024 09 05.02294 22 20 13.72 -28 44 54.5    ~95Hq 20.7 GVNEOCPJ04

Station data:
(F51) Pan-STARRS 1, Haleakala  (N20.707234 W156.255910)  US/Hawaii.
   Observers J. Bulger, T. Lowe, A. Schultz, M. Willman. Measurers K.
   Chambers, S. Chastel, T. de Boer, L. Denneau, J. Fairlamb, H. Flewelling,
   M. Huber, C.-C. Lin, E. Magnier, Y. Ramanjooloo, R. Wainscoat, R. Weryk.
   1.8-m Ritchey-Chrétien + CCD.
(J04) ESA Optical Ground Station, Tenerife  (N28.300921 W16.511830)  Canary
   Islands (Spain).  Observer R. Kresken. Measurers M. Micheli, D. Koschny,
   E. Schwab, M. Busch, A. Knöfel. 1.0-m f/4.4 reflector + CCD.

Orbital elements:  P11XWnT
   Perihelion 2024 Oct 7.55239 +/- 3.62 TT = 13:15:26 (JD 2460591.05239)
Epoch 2024 Sep  5.0 TT = JDT 2460558.5   Earth MOID: 0.2167   Ma: 0.0754
M 348.11611206 +/- 0.57             (J2000 ecliptic)             AutoNEOCP
n   0.36506964 +/- 0.024            Peri.  230.00617 +/- 4.6
a   1.93888580 +/- 0.0851           Node   138.38160 +/- 0.9
e   0.3874907 +/- 0.0327            Incl.    8.89730 +/- 0.34
P   2.700/986.095d         H 22.88  G  0.15   U 10.2
q 1.18758551 +/- 0.0119    Q 2.69018610 +/- 0.181
From 8 observations 2024 Sept. 4-5 (14.9 hr); mean residual 0".18
Residuals in arcseconds: 
240904 F51  .03+  .01-    240904 F51  .14-  .01-    240905 J04  .29-  .39-    
240904 F51  .10-  .15+    240904 F51  .13+  .03+    240905 J04  .29+  .16+    
240904 F51  .08+  .17-    240905 J04  .00   .23+    

Ephemerides (geocentric):
Date (UTC) HH   RA             Dec           delta  r     elong  mag " sig PA
---- --------  ------------   ------------  ------ ------ -----  --- --------
2024 09 07 03  22 23 37.782   -29 58 09.25  .23543 1.2242 154.3 21.2 19.7 151
2024 09 07 04  22 23 41.969   -29 59 35.31  .23541 1.2241 154.3 21.2 20.4 151
2024 09 07 05  22 23 46.162   -30 01 01.30  .23538 1.2240 154.2 21.2 21.1 151
2024 09 07 06  22 23 50.360   -30 02 27.22  .23536 1.2239 154.2 21.2 21.8 151
2024 09 07 07  22 23 54.564   -30 03 53.07  .23534 1.2238 154.1 21.2 22.6 151
2024 09 07 08  22 23 58.773   -30 05 18.85  .23531 1.2237 154.1 21.2 23.3 151
2024 09 07 09  22 24 02.988   -30 06 44.56  .23529 1.2236 154.0 21.2 24.0 151
2024 09 07 10  22 24 07.209   -30 08 10.20  .23527 1.2235 154.0 21.2 24.8 151
2024 09 07 11  22 24 11.435   -30 09 35.76  .23524 1.2234 154.0 21.2 25.6 151
2024 09 07 12  22 24 15.667   -30 11 01.26  .23522 1.2233 153.9 21.2 26.3 151
2024 09 07 13  22 24 19.904   -30 12 26.68  .23520 1.2232 153.9 21.2 27.1 151
2024 09 07 14  22 24 24.148   -30 13 52.03  .23518 1.2231 153.8 21.2 27.9 150
2024 09 07 15  22 24 28.397   -30 15 17.31  .23515 1.2230 153.8 21.2 28.8 150
2024 09 07 16  22 24 32.651   -30 16 42.51  .23513 1.2229 153.7 21.2 29.6 150
2024 09 07 17  22 24 36.911   -30 18 07.64  .23511 1.2228 153.7 21.2 30.4 150
2024 09 07 18  22 24 41.177   -30 19 32.70  .23509 1.2227 153.7 21.2 31.3 150
2024 09 07 19  22 24 45.448   -30 20 57.69  .23507 1.2226 153.6 21.2 32.1 150
2024 09 07 20  22 24 49.726   -30 22 22.60  .23504 1.2225 153.6 21.2 33.0 150
2024 09 07 21  22 24 54.008   -30 23 47.43  .23502 1.2224 153.5 21.2 33.9 150
2024 09 07 22  22 24 58.297   -30 25 12.19  .23500 1.2223 153.5 21.2 34.8 150
2024 09 07 23  22 25 02.591   -30 26 36.88  .23498 1.2222 153.4 21.2 35.7 150
2024 09 08 00  22 25 06.891   -30 28 01.49  .23496 1.2221 153.4 21.2 36.7 150
2024 09 08 01  22 25 11.196   -30 29 26.02  .23494 1.2220 153.3 21.2 37.6 150
2024 09 08 02  22 25 15.507   -30 30 50.48  .23492 1.2219 153.3 21.2 38.5 150
2024 09 08 03  22 25 19.824   -30 32 14.87  .23490 1.2219 153.3 21.2 39.5 150
2024 09 08 04  22 25 24.147   -30 33 39.18  .23488 1.2218 153.2 21.2 40.5 150
2024 09 08 05  22 25 28.475   -30 35 03.41  .23486 1.2217 153.2 21.2 41.4 150
2024 09 08 06  22 25 32.809   -30 36 27.56  .23484 1.2216 153.1 21.2 42.4 150
2024 09 08 07  22 25 37.148   -30 37 51.64  .23482 1.2215 153.1 21.2 43.4 150
2024 09 08 08  22 25 41.494   -30 39 15.64  .23480 1.2214 153.0 21.2 44.5 150
2024 09 08 09  22 25 45.845   -30 40 39.56  .23479 1.2213 153.0 21.2 45.5 150
2024 09 08 10  22 25 50.201   -30 42 03.40  .23477 1.2212 153.0 21.2 46.5 150
2024 09 08 11  22 25 54.564   -30 43 27.17  .23475 1.2211 152.9 21.2 47.6 150
2024 09 08 12  22 25 58.932   -30 44 50.86  .23473 1.2210 152.9 21.2 48.7 150
2024 09 08 13  22 26 03.306   -30 46 14.47  .23471 1.2209 152.8 21.2 49.7 150
2024 09 08 14  22 26 07.685   -30 47 38.00  .23469 1.2208 152.8 21.2 50.8 150
2024 09 08 15  22 26 12.071   -30 49 01.45  .23468 1.2207 152.8 21.2 51.9 150
2024 09 08 16  22 26 16.462   -30 50 24.82  .23466 1.2206 152.7 21.2 53.0 150
2024 09 08 17  22 26 20.858   -30 51 48.11  .23464 1.2205 152.7 21.2 54.2 150
2024 09 08 18  22 26 25.261   -30 53 11.32  .23462 1.2205 152.6 21.2 55.3 150
2024 09 08 19  22 26 29.669   -30 54 34.45  .23461 1.2204 152.6 21.2 56.4 150
2024 09 08 20  22 26 34.083   -30 55 57.50  .23459 1.2203 152.5 21.2 57.6 150
2024 09 08 21  22 26 38.502   -30 57 20.47  .23457 1.2202 152.5 21.2 58.8 150
2024 09 08 22  22 26 42.928   -30 58 43.36  .23456 1.2201 152.5 21.2 60.0 150
2024 09 08 23  22 26 47.359   -31 00 06.17  .23454 1.2200 152.4 21.2 61.2 150
2024 09 09 00  22 26 51.795   -31 01 28.89  .23452 1.2199 152.4 21.2 62.4 149
2024 09 09 01  22 26 56.238   -31 02 51.54  .23451 1.2198 152.3 21.2 63.6 149
2024 09 09 02  22 27 00.686   -31 04 14.10  .23449 1.2197 152.3 21.2 64.8 149